Grand Junction, CO

3:21 AM MST on December 13, 2017 (GMT -0700)
Walker

Weather History for KGJT - March, 2012

Change the Weather History Date:

Saturday, March 17, 2012

  Actual Average Record
Temperature  
Mean Temperature 59 °F 44 °F  
Max Temperature 68 °F 57 °F 76 °F (2017)
Min Temperature 50 °F 32 °F 14 °F (1923)
Degree Days  
Heating Degree Days 6 21  
Month to date heating degree days 327 387  
Since 1 July heating degree days 4426 4766  
Cooling Degree Days 0 0  
Month to date cooling degree days 0 0  
Year to date cooling degree days 0 0  
Growing Degree Days 8 (Base 50)    
Moisture  
Dew Point 17 °F    
Average Humidity 19    
Maximum Humidity 24    
Minimum Humidity 13    
Precipitation  
Precipitation 0.00 in 0.03 in 0.45 in (1905)
Month to date precipitation 0.20 0.45  
Year to date precipitation 1.00 1.57  
Snow  
Snow 0.00 in 0.10 in 4.30 in (1975)
Month to date snowfall 2.8 1.4  
Since 1 July snowfall 8.2 16.9  
Snow Depth 0.00 in    
Sea Level Pressure  
Sea Level Pressure 29.58 in    
Wind  
Wind Speed 18 mph (SSE)    
Max Wind Speed 39 mph    
Max Gust Speed 51 mph    
Visibility 10 miles    
Events      
T = Trace of Precipitation, MM = Missing Value Source: NWS Daily Summary

Daily Weather History Graph

Daily Weather History Graph

Search for Another Location

Airport or City:

Trip Planner

Search our weather history database for the weather conditions in past years. The results will help you decide how hot, cold, wet, or windy it might be!

Date:

Astronomy

Mar. 17, 2012 Rise Set
Actual Time 7:21 AM MDT 7:23 PM MDT
Civil Twilight 6:54 AM MDT 7:50 PM MDT
Nautical Twilight 6:23 AM MDT 8:21 PM MDT
Astronomical Twilight 5:52 AM MDT 8:53 PM MDT
Moon 4:23 AM MDT (3/17) 2:52 PM MDT (3/17)
Length of Visible Light 12h 55m
Length of Day
12h 02m
Waning Crescent, 22% of the Moon is Illuminated
Mar 17
Waning Crescent
Mar 22
New
Mar 30
First Quarter
Apr 6
Full
Apr 13
Last Quarter

Hourly Weather History & Observations

Time (MDT) Temp. Dew Point Humidity Pressure Visibility Wind Dir Wind Speed Gust Speed Precip Events Conditions
12:53 AM 53.1 °F 15.1 °F 22% 29.63 in 10.0 mi East 5.8 mph - N/A   Clear
1:53 AM 55.0 °F 15.1 °F 21% 29.61 in 10.0 mi ESE 17.3 mph - N/A   Clear
2:53 AM 52.0 °F 16.0 °F 24% 29.61 in 10.0 mi ESE 11.5 mph - N/A   Clear
3:53 AM 51.1 °F 16.0 °F 25% 29.61 in 10.0 mi East 11.5 mph - N/A   Clear
4:53 AM 53.1 °F 16.0 °F 23% 29.60 in 10.0 mi ESE 19.6 mph - N/A   Clear
5:53 AM 53.6 °F 17.6 °F 24% 29.75 in 10.0 mi ESE 17.3 mph - N/A   Clear
6:53 AM 55.9 °F 17.1 °F 22% 29.60 in 10.0 mi SE 20.7 mph - N/A   Clear
7:53 AM 55.9 °F 17.1 °F 22% 29.62 in 10.0 mi SE 18.4 mph - N/A   Clear
8:53 AM 54.0 °F 17.1 °F 23% 29.64 in 10.0 mi SE 16.1 mph - N/A   Clear
9:53 AM 55.9 °F 17.1 °F 22% 29.64 in 10.0 mi SE 16.1 mph - N/A   Clear
10:53 AM 57.9 °F 17.1 °F 20% 29.62 in 10.0 mi SE 15.0 mph - N/A   Clear
11:31 AM 62.6 °F 15.8 °F 16% 29.75 in 10.0 mi South 23.0 mph 29.9 mph N/A   Clear
11:53 AM 62.1 °F 15.1 °F 16% 29.61 in 10.0 mi South 18.4 mph 28.8 mph N/A   Clear
12:53 PM 63.0 °F 16.0 °F 16% 29.60 in 10.0 mi SSE 18.4 mph 24.2 mph N/A   Clear
1:53 PM 64.9 °F 16.0 °F 15% 29.55 in 10.0 mi South 16.1 mph 23.0 mph N/A   Clear
2:53 PM 66.9 °F 15.1 °F 14% 29.52 in 10.0 mi South 21.9 mph 28.8 mph N/A   Clear
3:53 PM 64.9 °F 15.1 °F 15% 29.53 in 10.0 mi SSW 9.2 mph 24.2 mph N/A   Clear
4:53 PM 63.0 °F 18.0 °F 18% 29.53 in 10.0 mi South 21.9 mph 33.4 mph N/A   Clear
5:53 PM 64.0 °F 14.0 °F 14% 29.50 in 10.0 mi South 9.2 mph - N/A   Clear
6:53 PM 62.1 °F 19.0 °F 19% 29.49 in 10.0 mi SSE 16.1 mph 26.5 mph N/A   Clear
7:53 PM 62.1 °F 17.1 °F 18% 29.49 in 10.0 mi SSE 19.6 mph - N/A   Clear
8:53 PM 60.1 °F 19.0 °F 20% 29.49 in 10.0 mi SSE 12.7 mph - N/A   Clear
9:53 PM 60.1 °F 21.0 °F 22% 29.50 in 10.0 mi SSE 16.1 mph - N/A   Partly Cloudy
10:53 PM 59.0 °F 21.9 °F 24% 29.46 in 10.0 mi ESE 17.3 mph - N/A   Clear
11:16 PM 59.0 °F 21.2 °F 23% 29.60 in 10.0 mi SE 10.4 mph - N/A   Clear
11:53 PM 61.0 °F 19.9 °F 21% 29.47 in 10.0 mi South 32.2 mph 41.4 mph N/A   Clear